sat.trackr.live / text

‹ back to catalog

STARLINK-30946

NORAD 58450 · 2023-183P

PAYLOAD ACTIVE UNKNOWN

§ Identity

Operator
Country
US
Launch date
2023-11-28
Launch site
AFETR
Launch vehicle
Mass (kg)
RCS (m²)

Purposes: comms

External: N2YO · Heavens-Above · Gunter

§ Orbital elements

Epoch: 2026-09-19T16:27:03.458880Z

Period
94.27 min
Inclination
43.0029°
Eccentricity
0.0001509
Mean motion
15.27579377 rev/d
Perigee alt
482.0 km
Apogee alt
484.1 km
Semi-major
6,861.2 km
B*
3.5372e-6
RAAN
26.0182°
Arg perigee
249.8908°
Mean anomaly
110.1782°
Rev number
15,640

§ Raw data

STARLINK-309461 58450U 23183P   26262.68545670 -.00000165  00000+0  35372-5 0  99952 58450  43.0029  26.0182 0001509 249.8908 110.1782 15.27579377156405

JSON: /api/v1/satellites/58450 · /tle

For live sub-satellite position, see the globe view (requires WebGL).

§ Visibility from observer

Set your observer location to see the next 7 days of passes ≥ 10°. The values pass through the URL so the page stays shareable.

No JS? Fill the form by hand. The geolocation button needs JavaScript.